Погода в Ике

Хотите узнать прогноз погоды в Ике? Тогда Вам сюда: Погода в Ике

Поиск расширенной информации на нашем сайте:

Полезная информация:

Новости сайта



02.01.2020
Опубликован Долгосрочный прогноз погоды по городам России и ближнего зарубежья на январь 2020 года.
Карты: Прогноз на январь и февраль 2020 года, Сравнение прогнозируемой аномалии приземной температуры воздуха на январь 2020 года по разным моделям.




Погода в Ике - сегодня

Время (UTC), дата Ветер
(°,м/с) 
Видим.   Явления Облачность Т
(°С)
Тd
(°С)
f(%) Тe
(°С)
Pmin
(гПа)
dP
(гПа)
Po
(мм)
O2
(г/м3)
Тmin Tmax R s Состояние
почвы
18 20.11.20 230 (ЮЗ) 10 км  слаб. ливневой снег  10/10 600 м кучево-дожд. 
[Cb cap]
-10.6 -14.2 75 -12  1027.5  -1.1  736  310           
00 21.11.20 230 (ЮЗ) 10 км  слаб. ливневой снег  10/10 600 м кучево-дожд. 
[Cb cap]
-10.2 -13.8 75 -13  1025.7  -1.8  735  309  -12    0.0  19  равномерный
сухой снег
100% 
06 21.11.20 180 (Ю) 20000 м  {ливн. осадки}  10/10 600 м кучево-дожд. 
[Cb cap]
-6.9 -10.7 74 -10  1019.7  -5.1  731  303           
12 21.11.20 250 (З) 10 км  ливневой снег  10/10 600 м кучево-дожд. 
[Cb cap]
-6.1 -9.2 79 -11  1015.1  -3.4  729  301    -5.8  0.9     
18 21.11.20 250 (З) 10 км  слаб. ливневой снег  10/10 600 м кучево-дожд. 
[Cb cap]
-5.4 -10 70 -9  1016.1  729  300           
00 22.11.20 260 (З) 10 км  слаб. ливневой снег  10/10 600 м кучево-дожд. 
[Cb cap]
-5.4 -8.7 78 -9  1013.8  -2  727  300  -8.8    0.2  19  равномерный
сухой снег
100% 
06 22.11.20 290 (З) 10 км  слаб. ливневой снег  10/10 600 м кучево-дожд. 
[Cb cap]
-3.5 -6.3 81 -7  1015.8  2.2  729  298           
12 22.11.20 270 (З) 10 км  слаб. ливневой снег  10/10 600 м кучево-дожд. 
[Cb cap]
-3.6 -7.2 76 -6  1018.4  731  299    -3.2  0.0     
18 22.11.20 250 (З) 10 км  слаб. ливневой снег  10/10 600 м кучево-дожд. 
[Cb cap]
-4.2 -7.2 80 -6  1019.4  0.3  731  300           
00 23.11.20 250 (З) 10 км  слаб. ливневой снег  10/10 600 м кучево-дожд. 
[Cb cap]
-4.3 -7.3 80 -7  1019.2  -0.1  731  300  -4.4    0.2  19  равномерный
сухой снег
100% 
06 23.11.20 230 (ЮЗ) 20000 м  {ливн. осадки}  10/10 600 м кучево-дожд. 
[Cb cap]
-4.2 -8 75 -4  1019.5  0.3  731  300           
12 23.11.20 290 (З) 10 км  слаб. ливневой снег  10/10 600 м кучево-дожд. 
[Cb cap]
-4.4 -8.3 74 -8  1023.8  4.2  734  302    -4  0.4     
18 23.11.20 290 (З) 10 км  {ливн. осадки}  3/3 600 м 
[Sc]
-7.4 -11.3 74 -12  1028.7  4.2  738  307           
00 24.11.20 270 (З) 10 км    3/0 средняя 
[Ac lent]
-11.1 -14.7 75 -11  1033.8  4.2  741  312  -11.1    0.0  19  равномерный
сухой снег
100% 
06 24.11.20 340 (С) 20000 м    1/0 верхняя 
[Ci fib]
-9.6 -14.8 66 -9  1037  3.4  743  312  -18.4         
12 24.11.20 тихо ()   10 км    5/0 600 м верхняя 
[Ci fib]
-23.1 -25.9 78 -23  1041.4  1.8  722  320    -9.2       
18 24.11.20 тихо ()   10 км    8/8 600 м 
[Sc]
-17.6 -19.5 85 -18  1040.5  745  322           
00 25.11.20 тихо ()   10 км  слаб. ливневой снег  10/10 600 м кучево-дожд. 
[Cb cap]
-10.6 -12.6 85 -11  1039.2  0.2  745  313  -24    0.2  19  равномерный
сухой снег
100% 
06 25.11.20 270 (З) 10 км  слаб. ливневой снег  8/8 600 м кучево-дожд. 
[Cb cap]
-10.4 -13.2 80 -10  1030.9  1.6  746  314           
12 25.11.20 270 (З) 10 км  слаб. ливневой снег  9/9 600 м кучево-дожд. 
[Cb cap]
-15 -17 85 -15  1043.3  747  320    -15.5  0.5     
18 25.11.20 тихо ()   10 км  слаб. ливневой снег  8/8 600 м кучево-дожд. 
[Cb cap]
-12.4 -15.1 80 -12  1043  0.3  746  316           
00 26.11.20 270 (З) 10 км  слаб. ливневой снег  9/9 600 м кучево-дожд. 
[Cb cap]
-16.5 -18.4 85 -17  1044.1  0.3  747  322  -16.5    0.2  19  равномерный
сухой снег
100% 
06 26.11.20 270 (З) 20000 м  {ливн. осадки}  6/6 600 м 
[Sc]
-10.2 -13.8 75 -12  1043  747  314           
12 26.11.20 230 (ЮЗ) 10 км  слаб. ливневой снег  10/10 600 м кучево-дожд. 
[Cb cap]
-11.1 -13.9 80 -13  1043.5  0.3  748  315    -9.8  0.0     
18 26.11.20 250 (З) 10 км  слаб. ливневой снег  9/9 600 м кучево-дожд. 
[Cb cap]
-10.6 -13.4 80 -12  1041.9  -1.4  747  314           
Время (UTC), дата Ветер
(°,м/с) 
Видим.   Явления Облачность Т
(°С)
Тd
(°С)
f(%) Тe
(°С)
Pmin
(гПа)
dP
(гПа)
Po
(мм)
O2
(г/м3)
Тmin Tmax R s Состояние
почвы

Для получения пояснительной информации подведите курсор к названию столбца.

ПОГОДА в Ике - архив

Всё, что Вы хотите узнать о погоде в Ике - удобно и подробно!

Выберите нужную дату (начиная с 1 января 2019* года) и нажмите кнопку "Найти".
Будут отображены архивные сводки погоды по пункту Ика, начиная с указанной даты.


Отображать данные в формате CSV (для использования в таблицах Excel)


Внимание! Наш архив погоды предназначен исключительно для личного некоммерческого использования в познавательных целях. Если Вам необходимы официальные справки о состоянии погоды (для производственных, юридических, коммерческих и т.п. целей), обращайтесь в органы Росгидромета.

*Примечание: данная дата относится к архиву по метеостанциям СССР (Россия, СНГ, Балтия).
Архив по метеостанциям Зарубежной Европы и Азии (кроме Китая) хранится 10 дней, по другим регионам земного шара (Китай, Африка, Америка, Австралия, Океания) - 1 день.

Ика - район местоположения метеостанции


Название, широта, долгота, высота метеостанции:
Ика 59.3°ш. 106.2°д. 352 м над ур. моря [Российская Федерация]

Дополнительная информация

В oтличие oт бoльшинства пoгoдных сайтoв мы публикуем пoдрoбную метеoинфoрмацию в детальнoм прoфессиoнальнoм фoрмате.

Характеристики температуры и влажнoсти вoздуха измеряются на высoте 2 м в тени вдали oт зданий и деревьев.
Скoрoсть ветра измеряется на высoте 10 м (на урoвне рoста челoвека скoрoсть ветра ниже в 1.5-2 раза). Если метеoстанция нахoдится в гoрoде или в лесу, тo скoрoсть ветра занижена на 2-4 м/с пo сравнению с oткрытым местoм. Скoрoсть ветра над акватoриями крупных рек и oзёр, а также на вершинах хoлмoв на 2-5 м/с выше, чем в oбычных услoвиях.
Атмoсфернoе давление в разных тoчках местнoсти мoжет значительнo oтличаться oт давления на метеoстанции, в зависимoсти oт услoвий рельефа (при пoдъёме на 10 м давление пoнижается примернo на 1 мм рт.ст.).